Location: *
(46.1006°N, 1.8394°E)
Time: 22:57:46
(UTC+00:00)

Cosmos 1626 - Pass Details

Date: 20 September 2019
Orbit: 493 x 495 km, 82.5° (Epoch: 20 October)

Event Time Altitude Azimuth Distance (km) Brightness Sun altitude
Rises 20:08:30 0° 0° (N) 2,589 6.1 -23.1°
Reaches altitude 10° 20:10:49 10° 12° (NNE) 1,701 5.0 -23.4°
Enters shadow 20:11:46 16° 21° (NNE) 1,376 4.4 -23.6°
